Location: Baia Mare
(47.6567°N, 23.5850°E)
Time: 13:37:34
(UTC+03:00)

ISS - Pass Details

Date: 17 July 2019
Orbit: 409 x 418 km, 51.6° (Epoch: 21 July)

Event Time Altitude Azimuth Distance (km) Brightness Sun altitude
Rises 00:05:51 0° 248° (WSW) 2,346 0.0 -18.4°
Reaches altitude 10° 00:07:57 10° 249° (WSW) 1,484 -1.0 -18.5°
Maximum altitude 00:11:17 81° 336° (NNW) 423 -3.8 -18.7°
Drops below altitude 10° 00:14:37 10° 65° (ENE) 1,484 -0.9 -18.9°
Sets 00:16:42 0° 67° (ENE) 2,346 0.1 -19.0°
